Terminal Aerodrome Forecast
Issued by NWS

Home | Current Version | Previous Version | Text Only | Print | Product List | Glossary Off
Versions: 1 2 3 4 5 6 7 8 9 10 11 12 13

000
FTUS44 KTSA 311300 AAA
TAFFYV
TAF AMD
KFYV 311308Z 3113/0112 36012KT P6SM OVC023
     FM311800 36012G19KT P6SM SKC
     FM010000 03004KT P6SM SKC=

USA.gov is the U.S. government's official web portal to all federal, state and local government web resources and services.